Regional Weather Roundup
Issued by NWS

Home | Current Version | Previous Version | Text Only | Print | Product List | Glossary Off
Versions: 1 2 3 4 5 6 7 8 9 10 11 12 13 14 15 16 17 18 19 20 21 22 23 24 25 26 27 28 29 30 31 32 33 34 35 36 37 38 39 40

000
ASUS43 KDMX 261807
RWRIA

WEATHER ROUNDUP FOR IOWA
NATIONAL WEATHER SERVICE DES MOINES IA
1200 PM CST FRI DEC 26 2014

NOTE: "FAIR" INDICATES FEW OR NO CLOUDS BELOW 12,000 FEET WITH NO
SIGNIFICANT WEATHER AND/OR OBSTRUCTIONS TO VISIBILITY.

* - THESE STATIONS ARE NOT NWS STATIONS...THUS NOT UNDER NWS
QUALITY CONTROL.  THEY ALSO DO NOT REPORT WEATHER SUCH
AS PRECIPITATION OR FOG.

IAZ001>003-012>014-020>022-031>034-043>046-261900-
   NORTHWEST IOWA

CITY           SKY/WX    TMP DP  RH WIND       PRES   REMARKS
CARROLL *      CLOUDY    32  32 100 N13       29.97F FOG     WCI  22
CHEROKEE *     CLOUDY    31  29  94 N13G22    30.00F WCI  21
DENISON *      CLOUDY    32  32 100 N13       29.97S WCI  22
LE MARS *      CLOUDY    30  28  93 N17       30.03F WCI  18
ORANGE CITY *  CLOUDY    30  27  86 N8        30.03R WCI  23
SHELDON *      CLOUDY    28  28 100 N14       30.02S WCI  17
SIOUX CITY     CLOUDY    32  27  81 N14       30.02F WCI  22
6HR MIN TEMP:  31; 6HR MAX TEMP:  33;

SPENCER        CLOUDY    31  27  85 N15       30.01R WCI  20
6HR MIN TEMP:  30; 6HR MAX TEMP:  31;

STORM LAKE *   CLOUDY    30  30 100 N18G24    29.98F FOG     WCI  18
$$

IAZ055>058-069>071-079>083-090>094-261900-
   SOUTHWEST IOWA

CITY           SKY/WX    TMP DP  RH WIND       PRES   REMARKS
ATLANTIC *     CLOUDY    34  32  93 N10G17    29.96F FOG     WCI  26
AUDUBON *      CLOUDY    32  28  86 N10       29.99R FOG     WCI  24
CLARINDA *     CLOUDY    34  32  93 N10       29.98S WCI  26
COUNCIL BLFS * CLOUDY    32  32 100 N9G17     29.97R WCI  24
CRESTON *      FOG       32  32 100 N12       29.94F VSB 1/2 WCI  23
HARLAN  *      CLOUDY    32  32 100 N16       29.99F WCI  21
LAMONI           N/A     40  33  76 NW3       29.93F
6HR MIN TEMP:  33; 6HR MAX TEMP:  41;

RED OAK *      CLOUDY    36  34  93 N14       29.98R FOG     WCI  27
SHENANDOAH *   CLOUDY    36  34  93 N13       29.98S WCI  27
$$

IAZ047>049-059>061-072>074-084-261900-
   CENTRAL IOWA

CITY           SKY/WX    TMP DP  RH WIND       PRES   REMARKS
AMES           CLOUDY    32  31  96 N13       29.97R FOG     WCI  22
6HR MIN TEMP:  26; 6HR MAX TEMP:  32;

ANKENY *       CLOUDY    32  32 100 N9        29.96S FOG     WCI  24
CHARITON *     SUNNY     43  34  70 W5        29.94S
DES MOINES     CLOUDY    33  30  88 N8        29.97F FOG     WCI  26
6HR MIN TEMP:  31; 6HR MAX TEMP:  36;

GRINNELL*        N/A     39  32  75 W5        29.93F
KNOXVILLE *    MOSUNNY   39  32  75 NW7       29.93F WCI  34
MARSHALLTOWN     N/A     36  32  85 NW7       29.93F WCI  30
6HR MIN TEMP:  31; 6HR MAX TEMP:  36;

PELLA *          N/A     41  33  73 W6        29.96S
PERRY *        CLOUDY    34  34 100 N10       29.96F FOG     WCI  26
$$

IAZ004>006-015-016-023>025-035-036-261900-
   NORTH CENTRAL IOWA

CITY           SKY/WX    TMP DP  RH WIND       PRES   REMARKS
ALGONA *       CLOUDY    32  32 100 N15G22    29.98S FOG     WCI  22
CLARION *      CLOUDY    32  32 100 N14       29.95F FOG     WCI  22
ESTHERVILLE    CLOUDY    30  28  92 N16       29.99F WCI  19
6HR MIN TEMP:  30; 6HR MAX TEMP:  31;

FORT DODGE *   CLOUDY    32  28  86 N9        29.98S WCI  24
MASON CITY     CLOUDY    33  31  92 N13       29.96F FOG     WCI  24
6HR MIN TEMP:  21; 6HR MAX TEMP:  33;

FOREST CITY *  CLOUDY    32  32 100 N13       29.96R FOG     WCI  22
IOWA FALLS *   FOG       32  30  93 N12       29.94F VSB 3/4 WCI  23
$$

IAZ007>011-017>019-026>030-037>042-050>054-066-261900-
   NORTHEAST IOWA

CITY           SKY/WX    TMP DP  RH WIND       PRES   REMARKS
CEDAR RAPIDS     N/A     44  35  70 SW12      29.94S
6HR MIN TEMP:  35; 6HR MAX TEMP:  44;

CHARLES CITY * CLOUDY    32  32 100 N10       29.95S FOG     WCI  24
CLINTON *        N/A     48  36  61 SW14      29.99S
DECORAH *      SUNNY     39  34  81 CALM      29.91F
DUBUQUE          N/A     42  34  73 SW13      29.93F
6HR MIN TEMP:  31; 6HR MAX TEMP:  42;

MONTICELLO *   SUNNY     43  37  81 SW9       29.95S
OELWEIN *      SUNNY     41  34  75 CALM      29.93F
WATERLOO         N/A     40  33  76 NW6       29.93F
6HR MIN TEMP:  28; 6HR MAX TEMP:  40;

$$

IAZ064-065-067-068-078-261900-
   EAST CENTRAL IOWA

CITY           SKY/WX    TMP DP  RH WIND       PRES   REMARKS
DAVENPORT        N/A     48  36  63 SW15      29.97F
6HR MIN TEMP:  39; 6HR MAX TEMP:  48;

IOWA CITY        N/A     46  36  68 SW9       29.97F
6HR MIN TEMP:  35; 6HR MAX TEMP:  46;

MT. PLEASANT *   N/A     48  38  68 SW14      29.96F
MUSCATINE *    SUNNY     48  37  66 SW12G18   29.97S
QUAD CITIES      N/A     49  36  61 SW13      29.97F
6HR MIN TEMP:  41; 6HR MAX TEMP:  49;

$$

IAZ062-063-075>077-085>089-095>099-261900-
   SOUTHEAST IOWA

CITY           SKY/WX    TMP DP  RH WIND       PRES   REMARKS
BURLINGTON       N/A     51  40  65 SW9       29.97F
6HR MIN TEMP:  40; 6HR MAX TEMP:  51;

FAIRFIELD *    SUNNY     46  37  71 SW8       29.95F
FORT MADISON * SUNNY     54  43  66 SW9       29.97F
KEOKUK *       SUNNY     54  41  62 SW17      29.96F
OSKALOOSA *      N/A     46  37  70 SW7       29.93F
CENTERVILLE *  SUNNY     46  39  76 SW13      29.95F
OTTUMWA          N/A     47  36  65 SW8       29.93F
6HR MIN TEMP:  38; 6HR MAX TEMP:  48;

WASHINGTON *   SUNNY     48  39  71 SW10      29.95F
$$

ABBREVIATIONS USED IN REMARKS
   TC - TEMPERATURES IN CELSIUS
  WCI - WIND CHILL INDEX
   HX - HEAT INDEX
  VSB - VISIBILITY
$$



USA.gov is the U.S. government's official web portal to all federal, state and local government web resources and services.